| time (UTC) | temp F | wind direction | speed MPH | gust MPH | rain 1hr in | rain 24hr in | rain mn in | humidity % | barometer mb |
| 20260503011613 | 67 | 342 | 3.0 | 7.0 | 0.00 | 0.00 | 0.00 | 41 | 1004.5 |
| 20260503011114 | 67 | 317 | 3.0 | 7.0 | 0.00 | 0.00 | 0.00 | 40 | 1004.7 |
| 20260503010615 | 67 | 337 | 2.0 | 7.0 | 0.00 | 0.00 | 0.00 | 39 | 1004.7 |
| 20260503010113 | 68 | 303 | 2.0 | 8.0 | 0.00 | 0.00 | 0.00 | 38 | 1004.8 |
| 20260503005610 | 68 | 275 | 4.0 | 14.0 | 0.00 | 0.00 | 0.00 | 37 | 1004.9 |
| 20260503005105 | 68 | 237 | 5.0 | 14.0 | 0.00 | 0.00 | 0.00 | 37 | 1005.0 |
| 20260503004604 | 68 | 238 | 4.0 | 12.0 | 0.00 | 0.00 | 0.00 | 36 | 1005.2 |
| 20260503004107 | 68 | 261 | 5.0 | 12.0 | 0.00 | 0.00 | 0.00 | 36 | 1005.2 |
| 20260503003608 | 68 | 263 | 3.0 | 12.0 | 0.00 | 0.00 | 0.00 | 38 | 1005.2 |
| 20260503003106 | 69 | 212 | 1.0 | 4.0 | 0.00 | 0.00 | 0.00 | 37 | 1004.9 |
| 20260503002606 | 69 | 182 | 0.0 | 3.0 | 0.00 | 0.00 | 0.00 | 36 | 1004.8 |
| 20260503001105 | 70 | 148 | 2.0 | 5.0 | 0.00 | 0.00 | 0.00 | 35 | 1005.0 |
| 20260503000108 | 70 | 128 | 3.0 | 7.0 | 0.00 | 0.00 | 0.00 | 35 | 1004.8 |
| 20260502235104 | 70 | 129 | 2.0 | 8.0 | 0.00 | 0.00 | 0.00 | 36 | 1005.0 |
| 20260502234603 | 70 | 136 | 2.0 | 4.0 | 0.00 | 0.00 | 0.00 | 36 | 1005.1 |
| 20260502234108 | 70 | 134 | 2.0 | 4.0 | 0.00 | 0.00 | 0.00 | 36 | 1005.2 |
| 20260502233107 | 70 | 143 | 1.0 | 7.0 | 0.00 | 0.00 | 0.00 | 35 | 1005.6 |
| 20260502232606 | 70 | 142 | 3.0 | 8.0 | 0.00 | 0.00 | 0.00 | 34 | 1005.4 |
| 20260502232105 | 70 | 119 | 4.0 | 10.0 | 0.00 | 0.00 | 0.00 | 34 | 1005.1 |
| 20260502231104 | 70 | 129 | 3.0 | 8.0 | 0.00 | 0.00 | 0.00 | 35 | 1005.1 |
| 20260502230604 | 70 | 135 | 3.0 | 8.0 | 0.00 | 0.00 | 0.00 | 35 | 1005.0 |
| 20260502225105 | 70 | 137 | 1.0 | 7.0 | 0.00 | 0.00 | 0.00 | 36 | 1005.2 |
| 20260502224604 | 70 | 119 | 1.0 | 3.0 | 0.00 | 0.00 | 0.00 | 35 | 1005.4 |
| 20260502224105 | 70 | 119 | 1.0 | 3.0 | 0.00 | 0.00 | 0.00 | 35 | 1005.4 |
| 20260502223559 | 70 | 119 | 1.0 | 3.0 | 0.00 | 0.00 | 0.00 | 34 | 1005.4 |
| 20260502223057 | 70 | 121 | 2.0 | 5.0 | 0.00 | 0.00 | 0.00 | 34 | 1005.6 |
| 20260502222554 | 70 | 128 | 2.0 | 6.0 | 0.00 | 0.00 | 0.00 | 34 | 1005.6 |
| 20260502222057 | 71 | 132 | 2.0 | 7.0 | 0.00 | 0.00 | 0.00 | 34 | 1005.8 |
| 20260502221557 | 70 | 127 | 3.0 | 7.0 | 0.00 | 0.00 | 0.00 | 34 | 1005.9 |
| 20260502221052 | 70 | 76 | 4.0 | 9.0 | 0.00 | 0.00 | 0.00 | 34 | 1005.9 |
| 20260502220044 | 70 | 132 | 4.0 | 8.0 | 0.00 | 0.00 | 0.00 | 35 | 1006.0 |
| 20260502215547 | 70 | 134 | 4.0 | 8.0 | 0.00 | 0.00 | 0.00 | 36 | 1006.2 |
| 20260502215045 | 70 | 132 | 3.0 | 8.0 | 0.00 | 0.00 | 0.00 | 36 | 1006.2 |
| 20260502214544 | 70 | 138 | 2.0 | 4.0 | 0.00 | 0.00 | 0.00 | 36 | 1006.3 |
| 20260502214042 | 69 | 134 | 2.0 | 4.0 | 0.00 | 0.00 | 0.00 | 36 | 1006.3 |
| 20260502213539 | 69 | 113 | 2.0 | 4.0 | 0.00 | 0.00 | 0.00 | 36 | 1006.3 |
| 20260502213043 | 69 | 128 | 2.0 | 3.0 | 0.00 | 0.00 | 0.00 | 37 | 1006.4 |
| 20260502212540 | 69 | 128 | 2.0 | 4.0 | 0.00 | 0.00 | 0.00 | 38 | 1006.4 |
| 20260502212036 | 69 | 128 | 2.0 | 4.0 | 0.00 | 0.00 | 0.00 | 38 | 1006.4 |
| 20260502211521 | 69 | 126 | 1.0 | 3.0 | 0.00 | 0.00 | 0.00 | 39 | 1006.3 |
| 20260502211014 | 68 | 128 | 1.0 | 3.0 | 0.00 | 0.00 | 0.00 | 39 | 1006.3 |
| 20260502205505 | 68 | 117 | 2.0 | 4.0 | 0.00 | 0.00 | 0.00 | 39 | 1006.4 |
| 20260502205006 | 68 | 131 | 1.0 | 4.0 | 0.00 | 0.00 | 0.00 | 40 | 1006.4 |
| 20260502204505 | 68 | 119 | 1.0 | 3.0 | 0.00 | 0.00 | 0.00 | 40 | 1006.5 |
| 20260502203957 | 68 | 119 | 1.0 | 3.0 | 0.00 | 0.00 | 0.00 | 41 | 1006.6 |
| 20260502203456 | 68 | 119 | 0.0 | 3.0 | 0.00 | 0.00 | 0.00 | 41 | 1006.8 |
| 20260502202956 | 69 | 119 | 0.0 | 2.0 | 0.00 | 0.00 | 0.00 | 40 | 1007.0 |
| 20260502202456 | 69 | 119 | 0.0 | 3.0 | 0.00 | 0.00 | 0.00 | 40 | 1006.8 |
| 20260502201955 | 69 | 119 | 1.0 | 3.0 | 0.00 | 0.00 | 0.00 | 39 | 1006.8 |
| 20260502201456 | 69 | 119 | 1.0 | 4.0 | 0.00 | 0.00 | 0.00 | 39 | 1006.8 |
| 20260502200955 | 69 | 119 | 1.0 | 4.0 | 0.00 | 0.00 | 0.00 | 39 | 1006.8 |
| 20260502195951 | 69 | 123 | 1.0 | 4.0 | 0.00 | 0.00 | 0.00 | 39 | 1007.0 |
| 20260502194953 | 69 | 119 | 0.0 | 3.0 | 0.00 | 0.00 | 0.00 | 39 | 1007.1 |
| 20260502194446 | 69 | 121 | 0.0 | 3.0 | 0.00 | 0.00 | 0.00 | 39 | 1007.2 |
| 20260502193941 | 69 | 121 | 0.0 | 2.0 | 0.00 | 0.00 | 0.00 | 38 | 1007.2 |
| 20260502191922 | 69 | 121 | 1.0 | 4.0 | 0.00 | 0.00 | 0.00 | 38 | 1007.4 |
| 20260502185404 | 69 | 117 | 1.0 | 3.0 | 0.00 | 0.00 | 0.00 | 37 | 1007.5 |
| 20260502184904 | 69 | 117 | 1.0 | 4.0 | 0.00 | 0.00 | 0.00 | 37 | 1007.7 |
| 20260502184402 | 69 | 117 | 1.0 | 4.0 | 0.00 | 0.00 | 0.00 | 37 | 1007.7 |
| 20260502183854 | 69 | 116 | 1.0 | 3.0 | 0.00 | 0.00 | 0.00 | 37 | 1007.8 |
| 20260502183355 | 69 | 115 | 1.0 | 4.0 | 0.00 | 0.00 | 0.00 | 37 | 1007.8 |
| 20260502182858 | 69 | 115 | 1.0 | 4.0 | 0.00 | 0.00 | 0.00 | 37 | 1007.8 |
| 20260502182356 | 69 | 113 | 1.0 | 6.0 | 0.00 | 0.00 | 0.00 | 37 | 1007.9 |
| 20260502181857 | 69 | 106 | 2.0 | 6.0 | 0.00 | 0.00 | 0.00 | 37 | 1007.8 |
| 20260502181358 | 69 | 112 | 2.0 | 6.0 | 0.00 | 0.00 | 0.00 | 37 | 1007.7 |
| 20260502180859 | 69 | 136 | 2.0 | 6.0 | 0.00 | 0.00 | 0.00 | 37 | 1007.6 |
| 20260502180353 | 69 | 111 | 2.0 | 6.0 | 0.00 | 0.00 | 0.00 | 38 | 1007.7 |
| 20260502163825 | 72 | 123 | 0.0 | 2.0 | 0.00 | 0.00 | 0.00 | 35 | 1008.0 |
| 20260502163308 | 72 | 123 | 0.0 | 3.0 | 0.00 | 0.00 | 0.00 | 35 | 1008.0 |
| 20260502162309 | 73 | 123 | 1.0 | 3.0 | 0.00 | 0.00 | 0.00 | 35 | 1008.1 |
| 20260502161825 | 73 | 124 | 0.0 | 3.0 | 0.00 | 0.00 | 0.00 | 34 | 1008.0 |
| 20260502161253 | 73 | 124 | 0.0 | 2.0 | 0.00 | 0.00 | 0.00 | 34 | 1007.9 |
| 20260502160822 | 73 | 124 | 0.0 | 2.0 | 0.00 | 0.00 | 0.00 | 34 | 1007.9 |
| 20260502160244 | 73 | 124 | 0.0 | 3.0 | 0.00 | 0.00 | 0.00 | 34 | 1007.8 |
| 20260502152210 | 74 | 136 | 1.0 | 4.0 | 0.00 | 0.00 | 0.00 | 32 | 1008.1 |
| 20260502150807 | 75 | 140 | 1.0 | 5.0 | 0.00 | 0.00 | 0.00 | 32 | 1008.2 |
| 20260502150146 | 75 | 132 | 2.0 | 6.0 | 0.00 | 0.00 | 0.00 | 32 | 1008.1 |
| 20260502123745 | 78 | 133 | 1.0 | 5.0 | 0.00 | 0.00 | 0.00 | 32 | 1009.2 |
| 20260502123113 | 78 | 143 | 1.0 | 5.0 | 0.00 | 0.00 | 0.00 | 32 | 1009.3 |
| 20260502122744 | 77 | 119 | 1.0 | 7.0 | 0.00 | 0.00 | 0.00 | 31 | 1009.3 |
| 20260502122114 | 77 | 134 | 1.0 | 7.0 | 0.00 | 0.00 | 0.00 | 32 | 1009.2 |
| 20260502121112 | 77 | 133 | 1.0 | 5.0 | 0.00 | 0.00 | 0.00 | 31 | 1009.5 |
| 20260502120741 | 77 | 128 | 0.0 | 5.0 | 0.00 | 0.00 | 0.00 | 32 | 1009.7 |
| 20260502120110 | 77 | 150 | 0.0 | 6.0 | 0.00 | 0.00 | 0.00 | 31 | 1009.7 |
| 20260502115109 | 77 | 138 | 0.0 | 4.0 | 0.00 | 0.00 | 0.00 | 32 | 1010.0 |
| 20260502114735 | 77 | 163 | 0.0 | 5.0 | 0.00 | 0.00 | 0.00 | 32 | 1010.2 |
| 20260502114107 | 77 | 156 | 1.0 | 5.0 | 0.00 | 0.00 | 0.00 | 31 | 1010.3 |
| 20260502113738 | 77 | 134 | 1.0 | 4.0 | 0.00 | 0.00 | 0.00 | 33 | 1010.3 |
| 20260502113102 | 76 | 169 | 1.0 | 4.0 | 0.00 | 0.00 | 0.00 | 33 | 1010.4 |
| 20260502112735 | 76 | 130 | 1.0 | 6.0 | 0.00 | 0.00 | 0.00 | 33 | 1010.5 |
| 20260502112102 | 76 | 167 | 1.0 | 6.0 | 0.00 | 0.00 | 0.00 | 34 | 1010.6 |
| 20260502111056 | 74 | 133 | 2.0 | 7.0 | 0.00 | 0.00 | 0.00 | 35 | 1010.8 |
| 20260502110728 | 74 | 134 | 2.0 | 7.0 | 0.00 | 0.00 | 0.00 | 35 | 1010.9 |
| 20260502110051 | 74 | 141 | 2.0 | 7.0 | 0.00 | 0.00 | 0.00 | 35 | 1010.9 |
| 20260502105051 | 74 | 153 | 2.0 | 7.0 | 0.00 | 0.00 | 0.00 | 36 | 1011.1 |
| 20260502103727 | 74 | 127 | 2.0 | 7.0 | 0.00 | 0.00 | 0.00 | 36 | 1011.0 |
| 20260502103048 | 74 | 182 | 2.0 | 7.0 | 0.00 | 0.00 | 0.00 | 36 | 1011.0 |
| 20260502102724 | 74 | 136 | 2.0 | 7.0 | 0.00 | 0.00 | 0.00 | 35 | 1011.0 |
| 20260502102048 | 74 | 177 | 2.0 | 7.0 | 0.00 | 0.00 | 0.00 | 35 | 1011.0 |
| 20260502101726 | 74 | 129 | 2.0 | 5.0 | 0.00 | 0.00 | 0.00 | 34 | 1011.0 |
| 20260502101049 | 74 | 134 | 2.0 | 6.0 | 0.00 | 0.00 | 0.00 | 34 | 1011.0 |
| 20260502091037 | 72 | 189 | 2.0 | 5.0 | 0.00 | 0.00 | 0.00 | 35 | 1011.4 |
| 20260502090715 | 72 | 181 | 2.0 | 5.0 | 0.00 | 0.00 | 0.00 | 33 | 1011.5 |
| 20260502070654 | 73 | 242 | 0.0 | 3.0 | 0.00 | 0.00 | 0.00 | 24 | 1011.8 |
| 20260502070006 | 72 | 243 | 0.0 | 3.0 | 0.00 | 0.00 | 0.00 | 25 | 1011.8 |
| 20260502065649 | 71 | 355 | 0.0 | 4.0 | 0.00 | 0.00 | 0.00 | 25 | 1011.9 |
| 20260502065002 | 71 | 274 | 1.0 | 4.0 | 0.00 | 0.00 | 0.00 | 25 | 1012.0 |
| 20260502064645 | 71 | 315 | 1.0 | 4.0 | 0.00 | 0.00 | 0.00 | 25 | 1012.0 |
| 20260502063959 | 71 | 247 | 1.0 | 4.0 | 0.00 | 0.00 | 0.00 | 26 | 1012.1 |
| 20260502063650 | 70 | 184 | 1.0 | 4.0 | 0.00 | 0.00 | 0.00 | 26 | 1012.0 |
| 20260502062953 | 70 | 227 | 1.0 | 4.0 | 0.00 | 0.00 | 0.00 | 26 | 1012.1 |
| 20260502061953 | 69 | 250 | 0.0 | 3.0 | 0.00 | 0.00 | 0.00 | 26 | 1012.1 |
| 20260502061644 | 69 | 246 | 0.0 | 3.0 | 0.00 | 0.00 | 0.00 | 27 | 1012.1 |
| 20260502060948 | 68 | 213 | 0.0 | 3.0 | 0.00 | 0.00 | 0.00 | 27 | 1012.2 |
| 20260502060641 | 68 | 211 | 0.0 | 3.0 | 0.00 | 0.00 | 0.00 | 26 | 1012.1 |
| 20260502055638 | 68 | 209 | 0.0 | 4.0 | 0.00 | 0.00 | 0.00 | 27 | 1012.1 |
| 20260502054934 | 67 | 209 | 0.0 | 4.0 | 0.00 | 0.00 | 0.00 | 28 | 1012.1 |
| 20260502054640 | 67 | 168 | 0.0 | 3.0 | 0.00 | 0.00 | 0.00 | 29 | 1012.1 |
| 20260502053932 | 67 | 167 | 0.0 | 3.0 | 0.00 | 0.00 | 0.00 | 29 | 1012.1 |
| 20260502053630 | 67 | 173 | 0.0 | 2.0 | 0.00 | 0.00 | 0.00 | 30 | 1012.0 |
| 20260502052931 | 67 | 172 | 0.0 | 2.0 | 0.00 | 0.00 | 0.00 | 29 | 1012.0 |
| 20260502052632 | 66 | 162 | 0.0 | 2.0 | 0.00 | 0.00 | 0.00 | 30 | 1012.0 |
| 20260502051931 | 65 | 163 | 0.0 | 2.0 | 0.00 | 0.00 | 0.00 | 29 | 1012.1 |
| 20260502051629 | 65 | 163 | 0.0 | 2.0 | 0.00 | 0.00 | 0.00 | 29 | 1012.1 |
| 20260502050929 | 65 | 163 | 0.0 | 2.0 | 0.00 | 0.00 | 0.00 | 30 | 1012.0 |
| 20260502045930 | 64 | 138 | 0.0 | 3.0 | 0.00 | 0.00 | 0.00 | 28 | 1011.9 |
| 20260502045626 | 64 | 136 | 1.0 | 4.0 | 0.00 | 0.00 | 0.00 | 31 | 1012.0 |
| 20260502044927 | 63 | 136 | 1.0 | 4.0 | 0.00 | 0.00 | 0.00 | 32 | 1011.9 |
| 20260502044624 | 63 | 143 | 1.0 | 3.0 | 0.00 | 0.00 | 0.00 | 32 | 1011.9 |
| 20260502043927 | 62 | 145 | 1.0 | 3.0 | 0.00 | 0.00 | 0.00 | 33 | 1011.8 |
| 20260502043628 | 61 | 173 | 0.0 | 3.0 | 0.00 | 0.00 | 0.00 | 33 | 1011.8 |
| 20260502042925 | 61 | 200 | 0.0 | 2.0 | 0.00 | 0.00 | 0.00 | 34 | 1011.8 |
| 20260502041925 | 59 | 315 | 0.0 | 2.0 | 0.00 | 0.00 | 0.00 | 43 | 1012.0 |
| 20260502041624 | 57 | 315 | 0.0 | 3.0 | 0.00 | 0.00 | 0.00 | 48 | 1012.0 |
| 20260502040923 | 56 | 315 | 0.0 | 3.0 | 0.00 | 0.00 | 0.00 | 49 | 1012.0 |
| 20260502040618 | 55 | 319 | 0.0 | 2.0 | 0.00 | 0.00 | 0.00 | 51 | 1012.0 |
| 20260502035919 | 54 | 319 | 0.0 | 2.0 | 0.00 | 0.00 | 0.00 | 52 | 1012.1 |
| 20260502034918 | 53 | 320 | 0.0 | 1.0 | 0.00 | 0.00 | 0.00 | 53 | 1012.2 |
| 20260502034616 | 53 | 319 | 0.0 | 0.0 | 0.00 | 0.00 | 0.00 | 54 | 1012.2 |
| 20260502033916 | 53 | 319 | 0.0 | 0.0 | 0.00 | 0.00 | 0.00 | 54 | 1012.2 |
| 20260502033612 | 53 | 319 | 0.0 | 0.0 | 0.00 | 0.00 | 0.00 | 54 | 1012.1 |
| 20260502032903 | 53 | 319 | 0.0 | 0.0 | 0.00 | 0.00 | 0.00 | 54 | 1012.1 |
| 20260502032612 | 53 | 319 | 0.0 | 1.0 | 0.00 | 0.00 | 0.00 | 54 | 1012.0 |
| 20260502031853 | 53 | 319 | 0.0 | 1.0 | 0.00 | 0.00 | 0.00 | 54 | 1011.9 |
| 20260502031609 | 53 | 319 | 0.0 | 0.0 | 0.00 | 0.00 | 0.00 | 54 | 1011.8 |
| 20260502030848 | 52 | 319 | 0.0 | 0.0 | 0.00 | 0.00 | 0.00 | 55 | 1011.7 |
| 20260502030609 | 52 | 319 | 0.0 | 0.0 | 0.00 | 0.00 | 0.00 | 54 | 1011.7 |
| 20260502025837 | 53 | 319 | 0.0 | 0.0 | 0.00 | 0.00 | 0.00 | 54 | 1011.6 |
| 20260502025607 | 53 | 319 | 0.0 | 0.0 | 0.00 | 0.00 | 0.00 | 55 | 1011.7 |
| 20260502024823 | 53 | 319 | 0.0 | 1.0 | 0.00 | 0.00 | 0.00 | 54 | 1011.6 |
| 20260502023557 | 52 | 325 | 0.0 | 2.0 | 0.00 | 0.00 | 0.00 | 56 | 1011.3 |
| 20260502022813 | 52 | 325 | 0.0 | 2.0 | 0.00 | 0.00 | 0.00 | 56 | 1011.1 |
| 20260502022554 | 52 | 325 | 0.0 | 2.0 | 0.00 | 0.00 | 0.00 | 56 | 1011.0 |
| 20260502021805 | 52 | 325 | 0.0 | 1.0 | 0.00 | 0.00 | 0.00 | 56 | 1011.1 |
| 20260502021558 | 53 | 325 | 0.0 | 1.0 | 0.00 | 0.00 | 0.00 | 56 | 1011.0 |
| 20260502020758 | 53 | 325 | 0.0 | 1.0 | 0.00 | 0.00 | 0.00 | 57 | 1011.0 |
| 20260502020559 | 53 | 325 | 0.0 | 1.0 | 0.00 | 0.00 | 0.00 | 57 | 1011.0 |
| 20260502015752 | 53 | 325 | 0.0 | 1.0 | 0.00 | 0.00 | 0.00 | 58 | 1011.0 |
| 20260502015548 | 53 | 325 | 0.0 | 1.0 | 0.00 | 0.00 | 0.00 | 58 | 1011.1 |
| 20260502014736 | 53 | 325 | 0.0 | 1.0 | 0.00 | 0.00 | 0.00 | 58 | 1011.1 |
| 20260502014550 | 53 | 325 | 0.0 | 1.0 | 0.00 | 0.00 | 0.00 | 59 | 1011.1 |
| 20260502013737 | 53 | 325 | 0.0 | 0.0 | 0.00 | 0.00 | 0.00 | 59 | 1011.1 |
| 20260502012738 | 53 | 325 | 0.0 | 0.0 | 0.00 | 0.00 | 0.00 | 60 | 1011.1 |
| 20260502012221 | 52 | 325 | 0.0 | 1.0 | 0.00 | 0.00 | 0.00 | 60 | 1011.1 |